Вернуться в каталог

COSMOS 2251 DEB

АктивенLEO
NORAD 35895·DEBRIS·🇷🇺 Russia

Запущен Jun 16, 1993 с Plesetsk Cosmodrome

Loading…

Ближайшие Пролёты (ближайшие 24 часа)

TLE

УстаревающийSource: Space-Track

Эпоха: Sep 9, 2026, 07:52 UTC

1 35895U 93036AUJ 26252.32780362  .00001351  00000-0  73780-3 0  9997
2 35895  74.0422 237.6563 0207224 272.8452  84.8984 14.02701145628057

Отслеживайте COSMOS 2251 DEB в реальном времени с AllMySat

Download on the App Store